TimeEDT,TemperatureF,Dew PointF,Humidity,Sea Level PressureIn,VisibilityMPH,Wind Direction,Wind SpeedMPH,Gust SpeedMPH,PrecipitationIn,Events,Conditions,WindDirDegrees,DateUTC
12:15 AM,55.4,53.6,94,30.07,10.0,Calm,Calm,-,N/A,,Clear,0,2013-09-30 04:15:00
12:35 AM,54.5,52.9,94,30.07,7.0,Calm,Calm,-,N/A,,Clear,0,2013-09-30 04:35:00
12:55 AM,54.5,53.1,95,30.07,10.0,Calm,Calm,-,N/A,,Clear,0,2013-09-30 04:55:00
1:15 AM,53.8,52.3,95,30.07,10.0,Calm,Calm,-,N/A,,Clear,0,2013-09-30 05:15:00
1:35 AM,53.8,52.3,95,30.07,7.0,Calm,Calm,-,N/A,,Clear,0,2013-09-30 05:35:00
1:55 AM,53.8,52.3,95,30.07,10.0,Calm,Calm,-,N/A,,Clear,0,2013-09-30 05:55:00
2:15 AM,53.1,51.8,95,30.07,10.0,Calm,Calm,-,N/A,,Clear,0,2013-09-30 06:15:00
2:35 AM,52.7,51.4,95,30.07,2.5,Calm,Calm,-,N/A,,Clear,0,2013-09-30 06:35:00
2:55 AM,53.2,52.2,96,30.07,1.2,Calm,Calm,-,N/A,,Mist,0,2013-09-30 06:55:00
3:15 AM,52.9,51.8,96,30.07,2.0,Calm,Calm,-,N/A,,Clear,0,2013-09-30 07:15:00
3:35 AM,52.7,51.3,95,30.06,5.0,Calm,Calm,-,N/A,,Clear,0,2013-09-30 07:35:00
3:55 AM,53.2,52.0,95,30.07,0.8,Calm,Calm,-,N/A,,Mist,0,2013-09-30 07:55:00
4:15 AM,53.2,52.2,96,30.06,1.0,Calm,Calm,-,N/A,,Mostly Cloudy,0,2013-09-30 08:15:00
4:35 AM,52.5,51.3,95,30.06,1.5,Calm,Calm,-,N/A,,Overcast,0,2013-09-30 08:35:00
4:55 AM,52.3,51.3,96,30.06,0.5,Calm,Calm,-,N/A,Fog,Fog,0,2013-09-30 08:55:00
5:15 AM,52.7,51.6,96,30.06,0.5,Calm,Calm,-,N/A,Fog,Fog,0,2013-09-30 09:15:00
5:35 AM,52.5,51.4,96,30.07,0.2,Calm,Calm,-,N/A,Fog,Fog,0,2013-09-30 09:35:00
5:55 AM,52.7,51.6,96,30.07,0.2,Calm,Calm,-,N/A,Fog,Fog,0,2013-09-30 09:55:00
6:15 AM,52.0,50.9,96,30.08,0.5,North,3.5,-,N/A,Fog,Fog,10,2013-09-30 10:15:00
6:35 AM,52.7,51.4,95,30.08,0.2,Calm,Calm,-,N/A,Fog,Fog,0,2013-09-30 10:35:00
6:55 AM,53.4,52.3,96,30.09,0.2,Calm,Calm,-,N/A,Fog,Fog,0,2013-09-30 10:55:00
7:15 AM,53.6,52.7,97,30.09,0.2,Calm,Calm,-,N/A,Fog,Fog,0,2013-09-30 11:15:00
7:35 AM,53.1,52.0,96,30.09,0.2,Calm,Calm,-,N/A,Fog,Fog,0,2013-09-30 11:35:00
7:55 AM,53.6,52.3,95,30.10,0.8,Calm,Calm,-,N/A,,Overcast,0,2013-09-30 11:55:00
8:15 AM,54.0,52.9,96,30.11,0.5,Calm,Calm,-,N/A,Fog,Fog,0,2013-09-30 12:15:00
8:35 AM,54.7,53.6,96,30.11,0.2,Calm,Calm,-,N/A,Fog,Fog,0,2013-09-30 12:35:00
8:55 AM,55.8,54.7,96,30.11,0.2,Calm,Calm,-,N/A,Fog,Fog,0,2013-09-30 12:55:00
9:15 AM,56.3,55.2,96,30.11,0.2,Calm,Calm,-,N/A,Fog,Fog,0,2013-09-30 13:15:00
9:35 AM,57.0,55.9,96,30.11,0.2,Calm,Calm,-,N/A,Fog,Fog,0,2013-09-30 13:35:00
9:55 AM,57.4,56.3,96,30.11,0.2,Calm,Calm,-,N/A,Fog,Fog,0,2013-09-30 13:55:00
10:15 AM,58.1,57.0,96,30.11,0.8,Calm,Calm,-,N/A,,Overcast,0,2013-09-30 14:15:00
10:35 AM,60.1,59.0,96,30.11,5.0,Calm,Calm,-,N/A,,Overcast,0,2013-09-30 14:35:00
10:55 AM,60.4,59.4,96,30.11,10.0,Calm,Calm,-,N/A,,Mostly Cloudy,0,2013-09-30 14:55:00
11:15 AM,61.2,60.1,96,30.11,10.0,Calm,Calm,-,N/A,,Scattered Clouds,0,2013-09-30 15:15:00
11:35 AM,62.1,60.1,93,30.10,10.0,Calm,Calm,-,N/A,,Clear,0,2013-09-30 15:35:00
11:55 AM,67.6,55.8,66,30.09,10.0,Calm,Calm,-,N/A,,Clear,0,2013-09-30 15:55:00
12:15 PM,68.9,54.7,60,30.09,10.0,ENE,4.6,-,N/A,,Clear,60,2013-09-30 16:15:00
12:35 PM,69.8,51.6,52,30.08,10.0,North,3.5,-,N/A,,Scattered Clouds,10,2013-09-30 16:35:00
12:55 PM,70.3,50.9,50,30.07,10.0,Calm,Calm,-,N/A,,Scattered Clouds,0,2013-09-30 16:55:00
1:15 PM,70.2,49.8,48,30.07,10.0,Calm,Calm,-,N/A,,Clear,0,2013-09-30 17:15:00
1:35 PM,70.3,49.8,48,30.06,10.0,North,3.5,-,N/A,,Scattered Clouds,360,2013-09-30 17:35:00
1:55 PM,71.2,49.8,47,30.05,10.0,Calm,Calm,-,N/A,,Mostly Cloudy,0,2013-09-30 17:55:00
2:15 PM,72.3,50.4,46,30.04,10.0,ESE,3.5,-,N/A,,Overcast,110,2013-09-30 18:15:00
2:35 PM,72.9,50.2,45,30.03,10.0,Calm,Calm,-,N/A,,Mostly Cloudy,0,2013-09-30 18:35:00
2:55 PM,72.0,49.6,45,30.03,10.0,Calm,Calm,-,N/A,,Scattered Clouds,0,2013-09-30 18:55:00
3:15 PM,72.9,49.6,44,30.02,10.0,North,4.6,-,N/A,,Scattered Clouds,10,2013-09-30 19:15:00
3:35 PM,72.5,50.5,46,30.02,10.0,Calm,Calm,-,N/A,,Mostly Cloudy,0,2013-09-30 19:35:00
3:55 PM,74.1,50.2,43,30.02,10.0,ENE,5.8,-,N/A,,Mostly Cloudy,60,2013-09-30 19:55:00
4:15 PM,73.6,49.6,43,30.01,10.0,ENE,4.6,-,N/A,,Overcast,60,2013-09-30 20:15:00
4:35 PM,73.6,50.2,44,30.01,10.0,NE,3.5,-,N/A,,Scattered Clouds,40,2013-09-30 20:35:00
4:55 PM,74.3,50.2,43,30.01,10.0,East,5.8,-,N/A,,Scattered Clouds,80,2013-09-30 20:55:00
5:15 PM,74.1,49.5,42,30.02,10.0,NNE,3.5,-,N/A,,Mostly Cloudy,20,2013-09-30 21:15:00
5:35 PM,73.8,50.0,43,30.02,10.0,East,4.6,-,N/A,,Mostly Cloudy,80,2013-09-30 21:35:00
5:55 PM,73.4,50.4,44,30.02,10.0,NE,4.6,-,N/A,,Mostly Cloudy,50,2013-09-30 21:55:00
6:15 PM,71.8,49.8,46,30.03,10.0,ENE,3.5,-,N/A,,Mostly Cloudy,60,2013-09-30 22:15:00
6:35 PM,69.8,51.4,52,30.03,10.0,Calm,Calm,-,N/A,,Clear,0,2013-09-30 22:35:00
6:55 PM,67.8,52.2,57,30.04,10.0,Calm,Calm,-,N/A,,Clear,0,2013-09-30 22:55:00
7:15 PM,66.2,52.7,62,30.04,10.0,Calm,Calm,-,N/A,,Clear,0,2013-09-30 23:15:00
7:35 PM,63.7,53.1,68,30.04,10.0,Calm,Calm,-,N/A,,Clear,0,2013-09-30 23:35:00
7:55 PM,63.3,54.5,73,30.05,10.0,Calm,Calm,-,N/A,,Clear,0,2013-09-30 23:55:00
8:15 PM,61.9,54.9,78,30.05,10.0,Calm,Calm,-,N/A,,Clear,0,2013-10-01 00:15:00
8:35 PM,61.7,54.5,77,30.06,10.0,Calm,Calm,-,N/A,,Clear,0,2013-10-01 00:35:00
8:55 PM,61.2,53.8,77,30.06,10.0,Calm,Calm,-,N/A,,Clear,0,2013-10-01 00:55:00
9:15 PM,58.1,54.0,86,30.07,10.0,Calm,Calm,-,N/A,,Clear,0,2013-10-01 01:15:00
9:35 PM,59.0,55.4,88,30.07,10.0,Calm,Calm,-,N/A,,Clear,0,2013-10-01 01:35:00
9:55 PM,58.8,54.9,87,30.07,10.0,Calm,Calm,-,N/A,,Clear,0,2013-10-01 01:55:00
10:15 PM,58.5,54.1,86,30.08,10.0,Calm,Calm,-,N/A,,Clear,0,2013-10-01 02:15:00
10:35 PM,58.5,53.6,84,30.08,10.0,Calm,Calm,-,N/A,,Clear,0,2013-10-01 02:35:00
10:55 PM,58.1,53.6,85,30.08,10.0,Calm,Calm,-,N/A,,Clear,0,2013-10-01 02:55:00
11:15 PM,56.3,53.4,90,30.08,10.0,South,3.5,-,N/A,,Clear,180,2013-10-01 03:15:00
11:35 PM,58.6,52.9,81,30.08,10.0,Calm,Calm,-,N/A,,Scattered Clouds,0,2013-10-01 03:35:00
11:55 PM,59.7,52.5,77,30.08,10.0,SW,3.5,-,N/A,,Scattered Clouds,220,2013-10-01 03:55:00